User: anonymous   Login
Location: Lincolnton
(35.4660°N, 81.2500°W)
Time: 18:18:40
(UTC-04:00)
Language:

Hubble Space Telescope - Orbit

View from above orbital plane
View from above orbital plane
View from above satellite
View from above satellite

Ground track
Ground track

The orbit data is extracted from the following two-line orbital elements,

1 20580U 90037B   17289.23197465  .00000729  00000-0  33971-4 0  9993
2 20580  28.4698 287.6224 0002862  40.0889 241.3011 15.08887583308581
Epoch (UTC): 16 October 2017 05:34:02
Eccentricity: 0.0002862
inclination: 28.4698°
perigee height: 537 km
apogee height: 541 km
right ascension of ascending node: 287.6224°
argument of perigee: 40.0889°
revolutions per day: 15.08887583
mean anomaly at epoch: 241.3011°
orbit number at epoch: 30858

The dashed part of the orbit path shows where the satellite is in the earth's shadow,  

DLR